www.pogodaiklimat.ru

АРХИВ ПОГОДЫ в Далласе

Время (UTC), дата Ветер
(напр.,м/с)
 
Видим.   Явления Облачность Т
(С)
Тd
(С)
f
(%)
Тe
(С)
Тes
(С)
Комфортность

P
(гПа)

Po
(гПа)
Тmin
(С)
Tmax
(С)
R
(мм)
SD
(см)
15:53 15.07 ЮЗ  16 км    2/2 1200 м
[средняя] 
+33.9  +21.7  49  +42  +47  опасность
перегрева 
1015.1  996.4         
16:53 15.07 ЮВ  4
{7} 
16 км    2/2 1500 м
[средняя] 
+34.4  +21.1  46  +42  +49  опасность
перегрева 
1014.5  995.7  +26.7  +35.0     
17:53 15.07 нст  16 км    2/2 1650 м  +36.1  +20.0  39  +42  +62  опасность
перегрева 
1014.0  995.4         
18:53 15.07 Ю  4
{7} 
16 км    5/5 1800 м  +37.0  +17.0  31  +40  +46  очень
душно 
1013.4  994.7         
19:53 15.07 Ю  4
{10} 
16 км    2/2 1800 м
[верхняя] 
+37.2  +18.3  33  +41  +51  опасность
перегрева 
1012.3  993.7         
20:53 15.07 Ю  5
{9} 
16 км    2/0 2400 м
[средняя верхняя] 
+37.2  +17.2  31  +40  +45  очень
душно 
1011.2  992.4         
21:53 15.07 Ю  16 км    2/0 2400 м
[средняя верхняя] 
+37.2  +18.3  33  +41  +42  опасность
перегрева 
1010.8  992.1         
22:53 15.07 Ю  16 км    2/0 2400 м
[средняя верхняя] 
+36.7  +17.8  33  +40  +43  очень
душно 
1010.8  992.1  +34.4  +37.8     
23:53 15.07 Ю  16 км    2/0 2400 м
[средняя верхняя] 
+35.0  +17.8  36  +39  +39  очень
душно 
1011.1  992.4         
00:53 16.07 Ю  16 км    2/0 2400 м
[средняя верхняя] 
+33.9  +17.2  37  +37  +37  очень
душно 
1011.7  993.1         
01:53 16.07 ЮВ  16 км    2/0 7500 м
[верхняя] 
+33.3  +18.9  43  +38  +38  очень
душно 
1012.5  993.7         
02:53 16.07 ЮВ  16 км    ясно  +32.2  +18.9  45  +37  +37  очень
душно 
1013.3  994.4         
03:53 16.07 Ю  16 км    ясно  +31.7  +20.0  50  +38  +38  очень
душно 
1013.5  994.7         
04:53 16.07 Ю  16 км    ясно  +30.6  +20.0  53  +37  +37  очень
душно 
1013.9  995.1    +36.7     
05:53 16.07 Ю  16 км    2/0 7500 м
[верхняя] 
+30.0  +20.0  55  +36  +36  очень
душно 
1013.8  995.1         
06:53 16.07 Ю  14 км    2/0 7500 м
[верхняя] 
+29.4  +20.0  57  +36  +36  очень
душно 
1013.7  995.1         
07:53 16.07 Ю  14 км    2/0 7500 м
[верхняя] 
+28.3  +20.0  61  +35  +35  очень
душно 
1013.7  995.1         
08:53 16.07 Ю  14 км    2/0 7500 м
[верхняя] 
+28.3  +20.0  61  +35  +35  очень
душно 
1013.8  995.1         
09:53 16.07 Ю  14 км    2/0 7500 м
[верхняя] 
+27.2  +20.6  67  +34  +34  очень
душно 
1014.0  995.4         
10:53 16.07 Ю  11 км    5/0 7500 м
[верхняя] 
+26.7  +21.1  71  +34  +34  очень
душно 
1014.6  995.7    +30.6     
11:53 16.07 Ю  13 км    5/0 9000 м
[верхняя] 
+27.8  +21.1  67  +35  +35  очень
душно 
1014.9  996.1         
12:53 16.07 Ю  13 км    2/0 9000 м
[верхняя] 
+29.4  +21.7  63  +37  +38  очень
душно 
1015.5  996.7         
13:53 16.07 Ю  13 км    2/0 9000 м
[верхняя] 
+30.6  +21.7  59  +39  +42  очень
душно 
1015.8  997.1         
14:53 16.07 Ю  13 км    2/0 9000 м
[верхняя] 
+32.2  +21.7  54  +41  +49  опасность
перегрева 
1015.6  996.7         
15:53 16.07 ЮЗ  14 км    2/0 9000 м
[верхняя] 
+33.3  +21.1  49  +41  +49  опасность
перегрева 
1015.6  996.7         
16:53 16.07 нст  14 км    2/2 1500 м
[верхняя] 
+36.0  +21.0  42  +43  +59  опасность
перегрева 
1015.1  996.4  +26.7       
17:53 16.07 нст  16 км    2/2 1800 м  +36.7  +18.9  35  +41  +59  опасность
перегрева 
1014.7  996.1         
18:53 16.07 нст  16 км    5/5 1950 м
[средняя] 
+37.2  +18.3  33  +41  +51  опасность
перегрева 
1014.0  995.4         
19:53 16.07 ЮВ  16 км    5/0 2250 м
[средняя] 
+37.8  +17.8  31  +41  +48  опасность
перегрева 
1013.2  994.4         
20:53 16.07 ЮЗ  16 км    2/0 2250 м
[средняя] 
+38.3  +16.7  28  +41  +49  опасность
перегрева 
1012.2  993.4         
21:53 16.07 Ю  16 км    2/0 2250 м
[средняя] 
+37.8  +16.7  29  +40  +42  очень
душно 
1011.7  993.1         
22:53 16.07 Ю  16 км    ясно  +37.2  +16.1  29  +39  +42  очень
душно 
1011.6  993.1    +38.3     
23:53 16.07 Ю  16 км    ясно  +36.1  +16.7  32  +39  +40  очень
душно 
1011.6  992.8         
00:53 17.07 В  16 км    2/0 9000 м
[верхняя] 
+33.9  +16.7  36  +37  +37  очень
душно 
1012.3  993.7         
01:53 17.07 ЮВ  16 км    ясно  +32.8  +16.7  38  +36  +36  очень
душно 
1013.0  994.4         
02:53 17.07 ЮВ  16 км    2/0 9000 м
[верхняя] 
+32.2  +17.2  41  +36  +36  очень
душно 
1013.7  995.1         
03:53 17.07 Ю  16 км    2/0 9000 м
[верхняя] 
+31.7  +17.8  44  +36  +36  очень
душно 
1013.7  995.1         
04:53 17.07 Ю  16 км    2/0 9000 м
[верхняя] 
+30.6  +18.3  48  +35  +35  очень
душно 
1013.8  995.1         
05:53 17.07 Ю  16 км    2/0 9000 м
[верхняя] 
+30.0  +18.9  51  +35  +35  очень
душно 
1013.8  995.1         
06:53 17.07 Ю  16 км    ясно  +30.0  +18.9  51  +35  +35  очень
душно 
1013.7  995.1         
07:53 17.07 Ю  16 км    ясно  +28.3  +18.9  57  +34  +34  очень
душно 
1013.7  995.1         
08:53 17.07 ЮЗ  16 км    ясно  +27.8  +18.9  58  +33  +33  очень
душно 
1013.9  995.1         
09:53 17.07 Ю  16 км    2/0 9000 м
[верхняя] 
+27.2  +18.3  58  +32  +32  очень
душно 
1014.4  995.7         
10:53 17.07 Ю  13 км    8/0 9000 м
[верхняя] 
+26.7  +18.9  62  +32  +32  очень
душно 
1014.9  996.1    +30.6     
11:53 17.07 Ю  13 км    ясно  +28.3  +18.9  57  +34  +34  очень
душно 
1015.2  996.4         
12:53 17.07 ЮЗ  14 км    ясно  +29.4  +20.0  57  +36  +37  очень
душно 
1015.7  997.1         
13:53 17.07 ЮЗ  6
{8} 
14 км    2/0 9000 м
[верхняя] 
+32.2  +20.6  50  +39  +41  очень
душно 
1015.8  997.1         
14:53 17.07 ЮЗ  14 км    2/0 9000 м
[верхняя] 
+33.3  +20.0  46  +40  +43  очень
душно 
1015.7  997.1         

 

Местоположение метеостанции Dallas / Fort Worth International Airport: широта 32.8974 долгота -97.0220 высота над уровнем моря 165 м.

В архиве по умолчанию представлена погода в Далласе за последние 1-2 суток. Обновление информации о фактической погоде в базе происходит ежечасно! Архивные данные за месяц целиком и за предыдущие месяцы Вы можете получить, выбрав интересующий диапазон дат из раскрывающегося списка и нажав кнопку "Ввод!".

Внимание! Архив погоды МЕТАР в базе сайта в настоящее время начинается c 1 января 2013 г. Нет смысла пытаться выбрать более раннюю дату.

Внимание! Время в таблицах - всемирное. Для получения местного времени необходимо прибавить поправку, которая в Далласе равна -6 ч.

Ветер - указаны скорость ветра в м/с и направление, откуда дует ветер: С - северный, СВ - северо-восточный, В - восточный, ЮВ - юго-восточный, Ю - южный, ЮЗ - юго-западный, З - западный, СЗ - северо-западный.
Видимость - горизонтальная дальность видимости в метрах или километрах. При видимости от 1 до 10 км при отсутствии осадков обычно наблюдается дымка, при ухудшении видимости до 1 км и менее - туман. В сухую погоду видимость может ухудшаться дымом, пылью или мглою.
Атмосферные явления - указаны явления, наблюдавшиеся в указанный момент времени.
Облачность - указаны через наклонную черту верхняя и нижняя облачность в баллах и высота нижней границы облаков в метрах. Внимание: облачность, как и прочие метеорологические величины в США измеряются автоматическими метеостанциями. Указанные значения в баллах носят условный характер и показывают процент времени, в течение которого, в среднем, лазерный луч высотомера отражался от облаков обратно.
T - Температура воздуха - температура, измеренная на высоте 2 м над землей.
Td - Температура точки росы - температура, при понижении до которой содержащийся в воздухе водяной пар достигнет насыщения.
f - Относительная влажность воздуха - влажноcть воздуха, измеренная на высоте 2 м над землей.
Te - Эффективная температура - температура, которую ощущает одетый по сезону человек в тени. Характеристика душности погоды. При расчете учитывается влияние влажности воздуха и скорости ветра на теплоощущения человека.
Tes - Эффективная температура на солнце - температура, которую ощущает человек, с поправкой на солнечный нагрев. Характеристика знойности погоды. Зависит от высоты солнца над горизонтом, облачности и скорости ветра. Ночью, в пасмурную погоду, а также при ветре 12 м/с и более поправка равна нулю.
P - Атмосферное давление - приведенное к уровню моря атмосферное давление.
Po - Атмосферное давление - измеренное на уровне метеостанции атмосферное давление.
Tmin - Минимальная температура - минимум температуры воздуха на высоте 2 м над землей.
Tmax - Максимальная температура - максимум температуры воздуха на высоте 2 м над землей.
R - Количество осадков - Количество выпавших осадков за 3 или 6 часов, мм.
SD - Снежный покров - Высота снежного покрова, см.